SL-14 DEB, 47085

Orbit data source: Space-Track

SL-14 DEB, 47085 is space debris in LEO originally from a launch on Thu, 15 Aug 1991 UTC launched from the Plesetsk Missile And Space Complex (PKMTR). Debris objects in space refer to the collection of defunct objects orbiting the Earth. Examples of debris include non-operational satellites, rocket bodies, and fragments generated from explosions, collisions, or faulty payload assembly.

Loading next visibility...
Identifier
47085, 1991-056DK
Orbit
LEO
Country
Flag of CISCIS
Related business
Manufacturer
Unknown
Mission
Spacecraft
Bus & Motor
Unknown
Mass
Unknown
Launch date (UTC)
1991-08-15 (34 years ago)
Launch vehicle
Unknown
Launch site
Plesetsk Missile And Space Complex (PKMTR)
Object type
Payload
Rocket body
Debris
Shape & HBR
Unknown shape, 0.1 m
Radar Cross Section
Small (<0.1 m²)

Expand to show TLE details & history
Last TLE update: 4 weeks ago

TLE from 4 weeks ago
0 SL-14 DEB
1 47085U 91056DK  26012.23967073  .00000343  00000-0  64480-3 0  9998
2 47085  82.5599 206.7792 0087445 304.8742  54.4192 13.34780404252922
Epoch: 2026-01-12T05:45Z
TLE epoch observation values (Epoch: 2026-01-12T05:45:07.551Z)
Latitude
0.00004°
Longitude
8.75853°
Altitude
1,093.8 km
Speed
7.324 km/s
True Right ascension
13h 47m 07s
True Declination
0° 00' 00"
Sunlit
Object was in daylight at epoch
Visualization orbit readout
Latitude
Unknown
Longitude
Unknown
Altitude
Unknown
Speed
Unknown
Apparent Right ascension
Unknown
Apparent Declination
Unknown
Sunlit
N/A
Visualization observer readout
Local Sidereal Time
13:50:56
Azimuth
Unknown
Elevation
Unknown
Doppler factor
Unknown
Orbital elements
Apogee altitude
1,191.625 km
Perigee altitude
1,060.385 km
Semi-major axis
7,504.142 km
Eccentricity
0.00874
Inclination
82.5599°
RAAN
206.7792°
Arg. of periapsis
304.8742°
True anomaly
55.23935°
Mean anomaly
54.4192°
Eccentric anomaly
54.82875°
Mean motion
3.33881 °/min
Orbital period
107.82 mins
BSTAR
0.0006448
Loading maneuver chart data...
Computing Atmospheric mass density...
Loading historical data...
Loading historical data...
Loading historical data...
Loading historical data...
Loading historical data...
Loading historical data...
Loading historical data...

Documentation

Showing up to 5 results
|